SCP
-0 0 0 0 -0 -0 -0 -0 -0 -0 -0 -0 -0 -0 -0 -0 -0 0 0 -0 0 -0 -0 0 0 0 0 0 0 0 0 0 0 0 0 0 0 -0 -0 -0 -0 -0 -0 -0 -0
-0 -0 0 0 -0 -0 -0 -0 -0 -0 -0 -0 -0 -0 -0 -0 0 0 0 0 0 -0 0 0 0 0 0 0 0 0 0 0 -0 0 0 0 0 0 -0 -0 -0 -0 -0 -0 -0
-0 -0 -0 -0 -0 -0 -0 -0 -0 -0 -0 -0 -0 -0 -0 -0 -0 -0 -0 0 0 0 0 0 0 0 0 0 0 0 -0 0 -0 0 0 0 0 0 -0 0 0 -0 0 -0 -0
0 0 -0 0 -0 -0 -0 -0 -0 -0 -0 -0 -0 -0 -0 -0 0 -0 0 -0 0 0 0 0 0 0 0 0 0 0 0 0 0 0 0 0 0 0 0 -0 -0 -0 0 0 0
-0 0 0 0 -0 -0 -0 -0 -0 -0 -0 -0 -0 -0 -0 0 0 -0 0 0 0 0 0 0 0 0 -0 -0 0 0 0 0 0 0 0 0 0 0 0 0 0 0 -0 0 0
-0 -0 -0 0 0 0 0 -0 -0 -0 -0 -0 -0 -0 -0 0 0 0 0 0 0 0 0 0 0 -0 -0 0 0 0 0 0 0 0 0 0 0 0 0 0 0 0 0 0 0
-0 -0 -0 -0 -0 0 0 0 -0 -0 -0 -0 -0 -0 0 0 0 0 0 0 0 0 0 -0 0 0 -0 -0 -0 0 0 0 0 0 0 0 0 0 0 0 0 0 0 0 0
-0 -0 -0 -0 -0 -0 0 0 0 0 -0 0 0 0 -0 0 0 0 0 0 0 0 0 -0 0 -0 0 -0 0 0 0 0 0 0 0 0 0 0 0 0 0 0 0 0 0
-0 -0 -0 -0 -0 -0 0 0 -0 0 -0 0 0 0 -0 0 -0 0 0 -0 0 0 0 0 -0 -0 -0 -0 0 0 0 0 0 0 0 0 0 0 0 0 0 0 0 0 0
-0 -0 -0 -0 -0 -0 -0 -0 -0 0 0 0 0 0 0 -0 0 0 0 0 0 0 0 -0 -0 0 0 0 -0 0 0 0 0 0 0 0 0 0 0 0 0 0 0 0 0
-0 -0 -0 -0 -0 -0 0 0 0 0 0 0 0 0 0 0 0 -0 0 -0 -0 -0 0 -0 -0 0 0 0 -0 0 0 0 0 0 0 0 0 0 0 0 0 0 0 0 0
-0 -0 -0 -0 -0 -0 0 0 0 0 0 0 0 0 0 0 0 -0 0 -0 -0 -0 -0 -0 -0 0 0 0 0 0 0 0 0 0 -0 0 0 0 0 0 0 0 0 0 0
-0 -0 -0 -0 -0 -0 0 0 0 0 0 0 0 0 0 0 0 -0 -0 0 -0 -0 -0 -0 0 0 0 0 0 0 0 0 0 0 0 0 0 0 0 0 0 0 0 0 0
-0 -0 -0 -0 0 -0 0 0 0 0 0 0 0 0 0 0 0 0 0 0 -0 -0 -0 -0 0 0 -0 0 0 0 0 0 0 0 -0 0 -0 0 0 0 0 0 0 0 0
0 -0 -0 -0 -0 -0 -0 0 0 0 0 0 0 0 0 0 0 0 0 0 -0 0 -0 0 0 0 0 0 0 0 0 0 0 0 0 0 0 0 0 0 0 0 0 0 0
0 0 -0 -0 0 -0 -0 0 0 0 0 0 0 0 0 0 0 0 -0 0 0 0 -0 0 0 0 0 0 0 -0 0 0 0 0 0 0 0 0 0 0 0 0 0 0 0
0 0 0 0 0 -0 -0 -0 0 0 0 0 0 0 0 0 0 0 0 0 0 -0 0 0 0 0 0 0 0 0 0 0 0 0 0 0 0 0 0 0 0 0 0 0 0
0 0 0 0 0 -0 0 -0 0 0 0 0 0 0 -0 0 0 0 0 0 0 -0 0 0 0 0 0 0 0 0 0 -0 0 0 0 0 0 0 0 0 0 0 0 0 0
0 0 0 0 0 0 0 -0 0 0 0 0 0 -0 0 -0 0 0 0 -0 0 -0 0 0 0 0 0 0 0 0 0 0 0 0 0 0 0 0 0 0 0 0 0 0 0
0 0 0 0 0 0 0 0 0 0 0 0 0 0 0 0 0 0 0 0 0 0 0 0 0 0 0 0 0 0 0 0 0 0 0 0 0 0 0 0 0 0 0 0 0
0 0 0 0 0 0 0 0 0 0 0 0 0 0 0 0 0 0 0 0 0 0 0 0 0 0 0 0 0 0 0 0 0 0 0 0 0 0 0 0 0 0 0 0 0
0 0 0 0 0 0 0 0 0 0 0 0 0 0 0 0 0 0 0 0 0 0 0 0 0 0 0 0 0 0 0 0 0 0 0 0 0 0 0 0 0 0 0 0 0
0 0 0 0 0 0 0 0 0 0 0 0 0 0 0 0 0 0 0 0 0 0 0 0 0 0 0 0 0 0 0 0 0 0 0 0 0 0 0 0 0 0 0 0 0
0 0 0 0 0 0 0 0 0 0 0 0 0 0 0 0 0 0 0 0 0 0 0 0 0 0 0 0 0 0 0 0 0 0 0 0 0 0 0 0 0 0 0 0 0
0 0 0 0 0 0 0 0 0 0 0 0 0 0 0 0 0 0 0 0 0 0 0 0 0 0 0 0 0 0 0 0 0 0 0 0 0 0 0 0 0 0 0 0 0
0 0 0 0 0 0 0 0 0 0 0 0 0 0 0 0 0 0 0 0 0 0 0 0 0 0 0 0 0 0 0 0 0 0 0 0 0 0 0 0 0 0 0 0 0
0 0 0 0 0 0 0 0 0 0 0 0 0 0 0 0 0 0 0 0 0 0 0 0 0 0 0 0 0 0 0 0 0 0 0 0 0 0 0 0 0 0 0 0 0
Wind_Speed_500mb
27 29 32 34 38 41 41 41 36 24 19 17 15 14 10 11 15 26 23 23 31 28 20 13 13 13 9 6 4 6 9 9 14 1 16 24 24 28 29 39 39 30 33 28 21
25 27 33 39 42 41 41 41 37 25 19 18 16 16 12 24 34 19 30 39 27 21 14 15 14 15 9 4 4 14 8 21 17 13 16 14 22 30 34 30 34 35 31 23 19
25 28 33 40 43 42 41 41 37 25 18 16 14 15 22 32 26 18 39 29 24 19 11 11 12 9 7 3 5 5 16 19 22 20 16 26 20 23 29 22 19 24 21 20 20
24 29 34 37 42 42 41 41 37 25 16 12 9 11 12 17 17 22 28 25 18 11 8 8 15 9 6 10 8 20 17 22 22 17 13 18 21 30 21 31 20 21 20 21 21
23 28 33 38 41 41 42 42 37 22 13 8 4 9 13 7 18 24 26 22 18 11 8 7 12 10 15 23 31 26 22 26 22 21 25 25 27 28 36 25 20 20 18 21 22
22 27 32 37 39 42 45 42 35 17 12 5 5 11 14 18 14 19 25 24 16 9 3 4 9 21 22 12 12 24 34 33 27 22 14 26 37 23 24 22 17 20 20 19 21
22 26 31 36 39 42 45 41 28 19 9 3 7 12 9 13 14 16 25 19 17 10 8 7 16 9 18 33 35 40 31 28 22 11 24 28 21 25 24 19 19 21 20 18 17
20 25 30 35 38 41 42 40 24 15 9 3 8 18 9 16 14 15 21 18 18 15 10 18 20 20 12 43 25 15 23 20 20 15 7 14 18 23 19 19 21 20 19 16 13
19 23 28 34 37 38 40 44 23 6 9 4 13 17 16 12 7 12 18 12 13 9 11 22 13 22 35 21 19 19 8 1 15 17 8 9 14 31 23 16 19 19 19 17 15
18 22 27 32 36 34 37 35 14 9 11 13 12 11 11 16 8 18 22 20 9 15 15 13 12 15 14 15 17 13 7 5 7 17 15 10 4 31 25 18 17 21 21 20 20
16 21 25 31 34 28 30 28 15 4 8 4 3 8 12 5 9 19 26 17 15 18 15 15 16 5 14 13 17 14 6 2 5 6 14 10 6 25 26 23 21 22 22 21 21
14 20 23 28 27 22 20 17 18 13 12 9 4 7 7 16 14 24 28 23 19 19 10 15 9 9 9 4 6 7 6 8 8 6 13 7 9 23 29 30 29 28 24 21 21
12 18 22 27 16 23 11 22 29 21 10 1 5 4 7 17 19 34 33 18 26 18 21 25 21 5 7 16 16 9 6 10 8 13 4 9 19 25 29 31 29 30 28 26 26
13 17 22 25 11 23 6 24 28 20 9 11 14 8 8 6 16 28 31 17 16 22 10 8 8 10 19 11 11 13 3 11 13 16 9 7 8 27 28 28 30 32 33 36 32
12 15 19 20 22 14 15 23 24 11 6 9 15 6 7 12 22 23 25 13 22 18 13 10 3 10 9 11 7 10 15 11 9 7 8 15 13 17 18 26 28 33 29 28 30
11 14 19 21 20 14 20 21 11 12 8 10 9 12 20 15 19 29 24 12 4 12 10 7 4 7 7 12 5 25 17 10 9 8 13 10 8 6 10 20 22 34 35 31 26
12 14 17 18 13 20 13 8 10 6 5 8 7 10 16 18 18 26 27 22 19 18 21 13 9 14 20 20 15 11 14 10 6 2 9 7 10 12 3 5 13 26 36 34 29
12 14 16 16 15 12 5 10 7 5 6 4 2 9 19 18 13 25 27 23 10 19 8 11 15 19 17 6 9 17 8 12 19 20 18 5 7 8 2 6 11 19 25 30 31
11 14 14 14 11 3 10 10 6 6 7 7 8 15 15 15 7 23 28 29 23 19 13 11 8 12 5 7 12 13 13 9 14 10 16 7 4 15 10 14 15 22 29 30 32
8 9 6 6 4 2 9 3 2 4 11 4 3 6 20 21 15 17 26 25 17 14 6 8 7 12 9 12 5 12 7 8 9 13 17 5 9 12 4 8 15 22 30 31 32
4 5 6 2 4 8 7 5 2 4 9 6 5 3 6 12 13 14 23 14 16 16 11 12 11 14 10 20 19 11 16 6 8 10 15 11 11 9 7 5 11 19 26 27 27
3 8 6 11 9 3 4 2 6 7 3 6 7 5 2 11 15 10 13 3 10 16 14 9 9 16 15 6 8 12 15 8 12 6 4 12 13 11 3 5 7 13 18 22 24
6 2 4 14 7 9 4 3 4 5 5 5 4 3 3 4 12 14 5 6 5 11 12 14 9 14 13 14 13 14 13 17 8 8 22 17 9 11 8 9 9 13 15 20 26
7 9 7 8 1 5 3 1 3 4 12 8 8 6 5 5 5 7 14 5 6 8 5 13 6 19 21 5 6 9 18 19 20 16 22 18 23 6 10 8 11 15 17 20 25
9 4 1 9 16 9 6 1 3 4 8 7 7 6 4 4 5 5 8 12 9 15 8 8 12 11 6 3 7 15 18 13 24 29 23 31 19 9 2 8 8 11 20 23 26
10 9 8 8 7 14 8 7 7 5 7 10 6 8 6 4 8 5 2 6 5 14 10 7 7 7 12 6 9 17 17 17 22 26 24 27 26 3 7 6 9 12 17 25 28
18 13 7 13 12 12 9 9 3 4 11 17 15 15 10 6 11 7 3 3 3 4 10 9 9 10 16 3 13 19 11 16 16 18 16 20 15 5 10 6 3 6 13 21 25
Wind_Direction_500mb
17 13 9 13 8 5 3 2 4 5 4 9 3 19 24 120 136 128 146 175 184 176 190 189 186 205 200 229 243 250 253 87 71 62 112 141 110 76 80 81 74 77 89 102 102
9 9 6 7 5 1 360 357 0 1 3 6 6 36 83 127 127 141 168 168 185 174 162 178 210 197 204 207 189 270 316 54 33 70 123 127 126 123 106 94 92 90 90 99 94
359 2 8 4 359 358 354 351 356 356 1 2 12 60 124 131 135 144 173 181 177 183 189 217 206 200 135 162 63 44 59 99 86 90 121 108 111 147 113 93 75 105 108 95 95
354 356 -0 1 356 352 348 346 349 350 354 358 25 90 143 156 145 180 181 180 173 164 161 175 170 173 86 80 78 103 77 108 105 110 117 93 121 91 105 103 113 109 111 113 103
345 349 351 357 354 348 344 341 342 346 343 349 63 120 148 185 123 183 174 162 154 143 193 176 193 103 85 99 86 96 97 94 110 105 99 111 121 112 112 115 108 114 121 118 102
336 341 346 353 350 344 340 342 339 348 340 331 128 147 157 165 159 171 166 154 153 134 110 187 197 111 93 59 23 120 111 112 118 119 113 120 125 116 123 129 124 135 132 118 111
326 335 343 349 347 342 340 344 343 347 346 326 151 163 163 135 136 152 159 165 158 135 124 129 153 312 114 99 114 124 119 124 128 127 120 113 121 117 135 139 136 145 138 129 121
319 330 340 344 344 342 341 342 339 345 36 330 159 156 132 164 149 152 171 166 161 134 111 106 127 106 112 125 146 157 167 181 151 169 164 265 132 152 149 150 145 155 151 148 129
312 326 337 343 342 342 343 343 332 337 342 104 137 150 138 167 155 167 167 168 177 153 153 143 127 117 139 157 169 186 337 112 165 195 174 261 133 161 171 164 165 172 169 173 172
309 324 337 342 342 343 349 347 356 83 13 97 123 155 167 159 164 165 175 155 156 151 146 173 162 167 209 237 340 2 231 210 228 172 221 207 170 160 177 194 189 195 187 198 204
306 323 337 341 343 344 356 360 6 53 13 350 281 293 131 215 187 176 178 163 161 198 209 208 219 314 339 289 314 308 300 214 78 116 236 250 207 172 187 211 219 212 204 211 211
303 320 338 341 346 349 0 39 17 320 303 300 222 226 171 167 178 173 172 187 193 205 184 199 242 5 343 332 175 170 161 113 123 148 252 193 202 165 191 213 221 217 221 216 214
302 319 337 342 345 353 1 8 359 347 261 149 203 192 138 164 192 182 178 196 204 202 204 265 65 158 154 134 130 121 324 167 1 159 186 207 210 197 211 216 220 225 225 225 218
303 321 336 347 3 343 328 341 347 348 240 128 166 153 173 181 178 178 186 202 202 220 193 247 81 140 178 151 277 154 216 177 164 217 7 219 4 187 197 212 216 223 221 221 217
300 318 332 343 332 336 309 333 336 320 172 140 138 153 186 218 143 177 192 213 211 186 222 115 281 182 185 57 4 92 154 176 212 265 284 163 268 109 187 217 211 207 204 205 204
294 311 325 331 331 312 318 326 326 231 104 142 161 181 184 184 177 155 185 209 218 175 218 73 111 40 80 60 69 137 142 157 227 277 234 76 279 263 173 240 208 195 197 196 198
290 305 317 319 302 311 316 317 239 299 165 117 154 193 201 171 167 185 187 190 190 199 205 173 92 101 141 99 140 231 214 265 282 245 357 94 250 314 292 200 240 195 198 197 198
288 304 312 310 309 317 316 244 248 81 63 73 215 193 195 170 176 189 193 190 216 229 214 231 156 162 179 280 237 216 293 322 315 351 350 137 289 41 101 186 226 229 200 199 201
293 311 316 308 295 294 265 242 37 42 11 349 172 196 174 174 243 192 203 207 190 206 239 201 154 150 216 216 215 163 235 13 284 199 264 46 199 204 211 235 207 206 204 197 200
301 315 271 308 241 158 254 17 65 353 339 279 250 270 185 177 199 209 189 205 202 217 302 177 201 207 124 163 167 275 107 233 219 315 320 38 283 4 328 183 191 192 197 200 201
306 252 273 197 149 239 262 72 312 329 312 309 7 179 238 178 228 198 185 150 211 176 202 183 236 149 176 212 262 170 211 257 302 284 320 314 10 85 328 322 195 203 198 198 201
203 223 277 163 216 261 237 17 338 309 282 278 291 291 322 198 208 201 201 254 176 182 196 186 218 239 238 85 309 289 296 242 286 311 269 292 288 128 198 204 248 226 198 198 201
204 184 211 170 238 197 144 216 269 296 312 305 284 327 352 195 211 232 195 91 161 195 188 176 211 225 210 193 196 232 218 250 257 278 277 294 330 150 167 225 215 227 210 202 200
190 185 158 198 225 282 219 160 226 246 275 270 291 272 242 207 195 216 224 137 126 188 174 171 198 261 259 309 24 200 232 233 228 271 293 268 294 237 187 205 196 209 211 215 208
199 171 157 180 202 215 256 277 265 233 230 260 211 257 315 235 174 210 213 163 157 157 158 210 242 237 276 298 244 288 290 235 238 258 280 299 306 345 257 173 201 208 214 216 210
191 188 183 138 158 199 177 200 252 245 249 171 244 344 296 282 10 36 245 231 196 180 181 192 215 213 218 216 265 276 282 277 272 272 278 281 282 254 125 165 194 223 232 232 222
204 178 208 150 175 215 187 220 249 288 230 257 290 310 252 21 336 350 8 78 26 265 192 203 168 224 271 235 276 262 310 314 294 276 292 290 33 120 202 200 275 301 270 260 245
Wind_Speed_850mb
27 29 32 34 38 41 41 41 36 24 19 17 15 14 10 11 15 26 23 23 31 28 20 13 13 13 9 6 4 6 9 9 14 1 16 24 24 28 29 39 39 30 33 28 21
25 27 33 39 42 41 41 41 37 25 19 18 16 16 12 24 34 19 30 39 27 21 14 15 14 15 9 4 4 14 8 21 17 13 16 14 22 30 34 30 34 35 31 23 19
25 28 33 40 43 42 41 41 37 25 18 16 14 15 22 32 26 18 39 29 24 19 11 11 12 9 7 3 5 5 16 19 22 20 16 26 20 23 29 22 19 24 21 20 20
24 29 34 37 42 42 41 41 37 25 16 12 9 11 12 17 17 22 28 25 18 11 8 8 15 9 6 10 8 20 17 22 22 17 13 18 21 30 21 31 20 21 20 21 21
23 28 33 38 41 41 42 42 37 22 13 8 4 9 13 7 18 24 26 22 18 11 8 7 12 10 15 23 31 26 22 26 22 21 25 25 27 28 36 25 20 20 18 21 22
22 27 32 37 39 42 45 42 35 17 12 5 5 11 14 18 14 19 25 24 16 9 3 4 9 21 22 12 12 24 34 33 27 22 14 26 37 23 24 22 17 20 20 19 21
22 26 31 36 39 42 45 41 28 19 9 3 7 12 9 13 14 16 25 19 17 10 8 7 16 9 18 33 35 40 31 28 22 11 24 28 21 25 24 19 19 21 20 18 17
20 25 30 35 38 41 42 40 24 15 9 3 8 18 9 16 14 15 21 18 18 15 10 18 20 20 12 43 25 15 23 20 20 15 7 14 18 23 19 19 21 20 19 16 13
19 23 28 34 37 38 40 44 23 6 9 4 13 17 16 12 7 12 18 12 13 9 11 22 13 22 35 21 19 19 8 1 15 17 8 9 14 31 23 16 19 19 19 17 15
18 22 27 32 36 34 37 35 14 9 11 13 12 11 11 16 8 18 22 20 9 15 15 13 12 15 14 15 17 13 7 5 7 17 15 10 4 31 25 18 17 21 21 20 20
16 21 25 31 34 28 30 28 15 4 8 4 3 8 12 5 9 19 26 17 15 18 15 15 16 5 14 13 17 14 6 2 5 6 14 10 6 25 26 23 21 22 22 21 21
14 20 23 28 27 22 20 17 18 13 12 9 4 7 7 16 14 24 28 23 19 19 10 15 9 9 9 4 6 7 6 8 8 6 13 7 9 23 29 30 29 28 24 21 21
12 18 22 27 16 23 11 22 29 21 10 1 5 4 7 17 19 34 33 18 26 18 21 25 21 5 7 16 16 9 6 10 8 13 4 9 19 25 29 31 29 30 28 26 26
13 17 22 25 11 23 6 24 28 20 9 11 14 8 8 6 16 28 31 17 16 22 10 8 8 10 19 11 11 13 3 11 13 16 9 7 8 27 28 28 30 32 33 36 32
12 15 19 20 22 14 15 23 24 11 6 9 15 6 7 12 22 23 25 13 22 18 13 10 3 10 9 11 7 10 15 11 9 7 8 15 13 17 18 26 28 33 29 28 30
11 14 19 21 20 14 20 21 11 12 8 10 9 12 20 15 19 29 24 12 4 12 10 7 4 7 7 12 5 25 17 10 9 8 13 10 8 6 10 20 22 34 35 31 26
12 14 17 18 13 20 13 8 10 6 5 8 7 10 16 18 18 26 27 22 19 18 21 13 9 14 20 20 15 11 14 10 6 2 9 7 10 12 3 5 13 26 36 34 29
12 14 16 16 15 12 5 10 7 5 6 4 2 9 19 18 13 25 27 23 10 19 8 11 15 19 17 6 9 17 8 12 19 20 18 5 7 8 2 6 11 19 25 30 31
11 14 14 14 11 3 10 10 6 6 7 7 8 15 15 15 7 23 28 29 23 19 13 11 8 12 5 7 12 13 13 9 14 10 16 7 4 15 10 14 15 22 29 30 32
8 9 6 6 4 2 9 3 2 4 11 4 3 6 20 21 15 17 26 25 17 14 6 8 7 12 9 12 5 12 7 8 9 13 17 5 9 12 4 8 15 22 30 31 32
4 5 6 2 4 8 7 5 2 4 9 6 5 3 6 12 13 14 23 14 16 16 11 12 11 14 10 20 19 11 16 6 8 10 15 11 11 9 7 5 11 19 26 27 27
3 8 6 11 9 3 4 2 6 7 3 6 7 5 2 11 15 10 13 3 10 16 14 9 9 16 15 6 8 12 15 8 12 6 4 12 13 11 3 5 7 13 18 22 24
6 2 4 14 7 9 4 3 4 5 5 5 4 3 3 4 12 14 5 6 5 11 12 14 9 14 13 14 13 14 13 17 8 8 22 17 9 11 8 9 9 13 15 20 26
7 9 7 8 1 5 3 1 3 4 12 8 8 6 5 5 5 7 14 5 6 8 5 13 6 19 21 5 6 9 18 19 20 16 22 18 23 6 10 8 11 15 17 20 25
9 4 1 9 16 9 6 1 3 4 8 7 7 6 4 4 5 5 8 12 9 15 8 8 12 11 6 3 7 15 18 13 24 29 23 31 19 9 2 8 8 11 20 23 26
10 9 8 8 7 14 8 7 7 5 7 10 6 8 6 4 8 5 2 6 5 14 10 7 7 7 12 6 9 17 17 17 22 26 24 27 26 3 7 6 9 12 17 25 28
18 13 7 13 12 12 9 9 3 4 11 17 15 15 10 6 11 7 3 3 3 4 10 9 9 10 16 3 13 19 11 16 16 18 16 20 15 5 10 6 3 6 13 21 25
Wind_Direction_850mb
17 13 9 13 8 5 3 2 4 5 4 9 3 19 24 120 136 128 146 175 184 176 190 189 186 205 200 229 243 250 253 87 71 62 112 141 110 76 80 81 74 77 89 102 102
9 9 6 7 5 1 360 357 0 1 3 6 6 36 83 127 127 141 168 168 185 174 162 178 210 197 204 207 189 270 316 54 33 70 123 127 126 123 106 94 92 90 90 99 94
359 2 8 4 359 358 354 351 356 356 1 2 12 60 124 131 135 144 173 181 177 183 189 217 206 200 135 162 63 44 59 99 86 90 121 108 111 147 113 93 75 105 108 95 95
354 356 -0 1 356 352 348 346 349 350 354 358 25 90 143 156 145 180 181 180 173 164 161 175 170 173 86 80 78 103 77 108 105 110 117 93 121 91 105 103 113 109 111 113 103
345 349 351 357 354 348 344 341 342 346 343 349 63 120 148 185 123 183 174 162 154 143 193 176 193 103 85 99 86 96 97 94 110 105 99 111 121 112 112 115 108 114 121 118 102
336 341 346 353 350 344 340 342 339 348 340 331 128 147 157 165 159 171 166 154 153 134 110 187 197 111 93 59 23 120 111 112 118 119 113 120 125 116 123 129 124 135 132 118 111
326 335 343 349 347 342 340 344 343 347 346 326 151 163 163 135 136 152 159 165 158 135 124 129 153 312 114 99 114 124 119 124 128 127 120 113 121 117 135 139 136 145 138 129 121
319 330 340 344 344 342 341 342 339 345 36 330 159 156 132 164 149 152 171 166 161 134 111 106 127 106 112 125 146 157 167 181 151 169 164 265 132 152 149 150 145 155 151 148 129
312 326 337 343 342 342 343 343 332 337 342 104 137 150 138 167 155 167 167 168 177 153 153 143 127 117 139 157 169 186 337 112 165 195 174 261 133 161 171 164 165 172 169 173 172
309 324 337 342 342 343 349 347 356 83 13 97 123 155 167 159 164 165 175 155 156 151 146 173 162 167 209 237 340 2 231 210 228 172 221 207 170 160 177 194 189 195 187 198 204
306 323 337 341 343 344 356 360 6 53 13 350 281 293 131 215 187 176 178 163 161 198 209 208 219 314 339 289 314 308 300 214 78 116 236 250 207 172 187 211 219 212 204 211 211
303 320 338 341 346 349 0 39 17 320 303 300 222 226 171 167 178 173 172 187 193 205 184 199 242 5 343 332 175 170 161 113 123 148 252 193 202 165 191 213 221 217 221 216 214
302 319 337 342 345 353 1 8 359 347 261 149 203 192 138 164 192 182 178 196 204 202 204 265 65 158 154 134 130 121 324 167 1 159 186 207 210 197 211 216 220 225 225 225 218
303 321 336 347 3 343 328 341 347 348 240 128 166 153 173 181 178 178 186 202 202 220 193 247 81 140 178 151 277 154 216 177 164 217 7 219 4 187 197 212 216 223 221 221 217
300 318 332 343 332 336 309 333 336 320 172 140 138 153 186 218 143 177 192 213 211 186 222 115 281 182 185 57 4 92 154 176 212 265 284 163 268 109 187 217 211 207 204 205 204
294 311 325 331 331 312 318 326 326 231 104 142 161 181 184 184 177 155 185 209 218 175 218 73 111 40 80 60 69 137 142 157 227 277 234 76 279 263 173 240 208 195 197 196 198
290 305 317 319 302 311 316 317 239 299 165 117 154 193 201 171 167 185 187 190 190 199 205 173 92 101 141 99 140 231 214 265 282 245 357 94 250 314 292 200 240 195 198 197 198
288 304 312 310 309 317 316 244 248 81 63 73 215 193 195 170 176 189 193 190 216 229 214 231 156 162 179 280 237 216 293 322 315 351 350 137 289 41 101 186 226 229 200 199 201
293 311 316 308 295 294 265 242 37 42 11 349 172 196 174 174 243 192 203 207 190 206 239 201 154 150 216 216 215 163 235 13 284 199 264 46 199 204 211 235 207 206 204 197 200
301 315 271 308 241 158 254 17 65 353 339 279 250 270 185 177 199 209 189 205 202 217 302 177 201 207 124 163 167 275 107 233 219 315 320 38 283 4 328 183 191 192 197 200 201
306 252 273 197 149 239 262 72 312 329 312 309 7 179 238 178 228 198 185 150 211 176 202 183 236 149 176 212 262 170 211 257 302 284 320 314 10 85 328 322 195 203 198 198 201
203 223 277 163 216 261 237 17 338 309 282 278 291 291 322 198 208 201 201 254 176 182 196 186 218 239 238 85 309 289 296 242 286 311 269 292 288 128 198 204 248 226 198 198 201
204 184 211 170 238 197 144 216 269 296 312 305 284 327 352 195 211 232 195 91 161 195 188 176 211 225 210 193 196 232 218 250 257 278 277 294 330 150 167 225 215 227 210 202 200
190 185 158 198 225 282 219 160 226 246 275 270 291 272 242 207 195 216 224 137 126 188 174 171 198 261 259 309 24 200 232 233 228 271 293 268 294 237 187 205 196 209 211 215 208
199 171 157 180 202 215 256 277 265 233 230 260 211 257 315 235 174 210 213 163 157 157 158 210 242 237 276 298 244 288 290 235 238 258 280 299 306 345 257 173 201 208 214 216 210
191 188 183 138 158 199 177 200 252 245 249 171 244 344 296 282 10 36 245 231 196 180 181 192 215 213 218 216 265 276 282 277 272 272 278 281 282 254 125 165 194 223 232 232 222
204 178 208 150 175 215 187 220 249 288 230 257 290 310 252 21 336 350 8 78 26 265 192 203 168 224 271 235 276 262 310 314 294 276 292 290 33 120 202 200 275 301 270 260 245